Weather History for Vancouver, BC

Change the Weather History Date:

Monday, March 10, 2014

  Actual Average Record
Temperature  
Mean Temperature 44 °F -  
Max Temperature 49 °F 46 °F 57 °F (2005)
Min Temperature 40 °F 36 °F 23 °F (2009)
Degree Days  
Heating Degree Days 20    
Moisture  
Dew Point 41 °F    
Average Humidity 85    
Maximum Humidity 100    
Minimum Humidity 68    
Precipitation  
Precipitation 0.00 in - - ()
Sea Level Pressure  
Sea Level Pressure 30.13 in    
Wind  
Wind Speed 8 mph ()    
Max Wind Speed 23 mph    
Max Gust Speed 26 mph    
Visibility 17.7 miles    
Events      
Averages and records for this station are not official NWS values.
T = Trace of Precipitation, MM = Missing Value Source: Averaged Metar Reports

Daily Weather History Graph

Daily Weather History Graph

Search for Another Location

Airport:

Trip Planner

Search our weather history database for the weather conditions in past years. The results will help you decide how hot, cold, wet, or windy it might be!

Date:

Astronomy

Mar. 10, 2014 Rise Set
Actual Time 7:36 AM PDT 7:10 PM PDT
Civil Twilight 7:04 AM PDT 7:41 PM PDT
Nautical Twilight 6:27 AM PDT 8:18 PM PDT
Astronomical Twilight 5:50 AM PDT 8:56 PM PDT
Moon 1:37 PM PDT (3/10) 4:13 AM PDT (3/10)
Length of Visible Light 12h 37m
Length of Day
11h 34m
Waxing Gibbous, 71% of the Moon is Illuminated
Mar 10
Waxing Gibbous
Mar 16
Full
Mar 23
Last Quarter
Mar 30
New
Apr 7
First Quarter

Hourly Weather History & Observations

Time (PDT) Temp. Windchill Dew Point Humidity Pressure Visibility Wind Dir Wind Speed Gust Speed Precip Events Conditions
12:00 AM 44.6 °F 43.1 °F 39.2 °F 81% 29.96 in 20.0 mi ENE 3.5 mph - N/A   Mostly Cloudy
1:00 AM 44.6 °F - 39.2 °F 81% 29.97 in 20.0 mi Variable 2.3 mph - N/A   Mostly Cloudy
2:00 AM 44.6 °F 42.2 °F 41.0 °F 87% 29.98 in 20.0 mi SSW 4.6 mph - N/A   Mostly Cloudy
3:00 AM 42.8 °F 41.1 °F 39.2 °F 87% 29.98 in 15.0 mi West 3.5 mph - N/A   Mostly Cloudy
4:00 AM 41.0 °F 39.0 °F 39.2 °F 93% 29.98 in 15.0 mi SSW 3.5 mph - N/A   Mostly Cloudy
5:00 AM 42 °F - 40 °F 92% 29.99 in 15 mi NW 3.5 mph - -   Overcast
5:00 AM 42.8 °F 41.1 °F 41.0 °F 93% 29.99 in 15.0 mi NW 3.5 mph - N/A   Overcast
6:00 AM 42.8 °F - 39.2 °F 87% 30.01 in 15.0 mi Calm Calm - N/A   Mostly Cloudy
7:00 AM 42.8 °F 37.5 °F 42.8 °F 100% 30.02 in 15.0 mi WNW 9.2 mph - N/A   Overcast
8:00 AM 42.8 °F 37.0 °F 41.0 °F 93% 30.03 in 30.0 mi West 10.4 mph - N/A   Overcast
8:43 AM 42.8 °F 38.0 °F 41.0 °F 93% 30.04 in 30.0 mi WNW 8.1 mph - N/A   Overcast
9:00 AM 42.8 °F 36.2 °F 41.0 °F 93% 30.05 in 30.0 mi NW 12.7 mph 18.4 mph N/A   Overcast
10:00 AM 44.6 °F 38.8 °F 42.8 °F 93% 30.08 in 20.0 mi NW 11.5 mph - N/A   Overcast
11:00 AM 45 °F - 42 °F 87% 30.10 in 15 mi WNW 16.1 mph - -   Mostly Cloudy
11:00 AM 44.6 °F 37.2 °F 42.8 °F 93% 30.10 in 15.0 mi WNW 17.3 mph - N/A   Mostly Cloudy
12:00 PM 46.4 °F 39.2 °F 44.6 °F 93% 30.12 in 30.0 mi WNW 18.4 mph - N/A   Mostly Cloudy
12:29 PM 48.2 °F - 44.6 °F 87% 30.13 in 30.0 mi WNW 15.0 mph - N/A   Partly Cloudy
1:00 PM 48.2 °F - 44.6 °F 87% 30.14 in 30.0 mi West 17.3 mph 25.3 mph N/A   Partly Cloudy
2:00 PM 48.2 °F - 44.6 °F 87% 30.15 in 30.0 mi West 19.6 mph - N/A   Partly Cloudy
3:00 PM 48.2 °F - 42.8 °F 82% 30.17 in 30.0 mi West 19.6 mph - N/A   Mostly Cloudy
4:00 PM 48.2 °F - 42.8 °F 82% 30.18 in 30.0 mi West 23.0 mph - N/A   Partly Cloudy
5:00 PM 49 °F - 42 °F 68% 30.21 in 28 mi West 19.6 mph - -  
5:00 PM 50.0 °F - 41.0 °F 71% 30.20 in 30.0 mi West 21.9 mph - N/A   Clear
6:00 PM 48.2 °F - 41.0 °F 76% 30.23 in 30.0 mi West 18.4 mph 26.5 mph N/A   Partly Cloudy
7:00 PM 46.4 °F 39.2 °F 41.0 °F 81% 30.25 in 20.0 mi West 18.4 mph 26.5 mph N/A   Partly Cloudy
8:00 PM 46.4 °F 39.5 °F 41.0 °F 81% 30.28 in 20.0 mi WSW 17.3 mph - N/A   Partly Cloudy
9:00 PM 44.6 °F 39.2 °F 39.2 °F 81% 30.32 in 20.0 mi West 10.4 mph - N/A   Partly Cloudy
10:00 PM 44.6 °F - 37.4 °F 76% 30.36 in 20.0 mi Variable 2.3 mph - N/A   Partly Cloudy
11:00 PM 44 °F - 39 °F 78% 30.40 in 19 mi West 9.2 mph - -   Scattered Clouds
11:00 PM 44.6 °F 40.2 °F 39.2 °F 81% 30.40 in 20.0 mi West 8.1 mph - N/A   Partly Cloudy